Weather in Solnechnyy

Russia / Sakha (Yakutia) Republic     60°18′06″N   137°33′20″E
temp.,
°C
wind,
m/s
gust,
m/s
humid.,
%
clouds,
%
prec.,
mm/h
press.,
hPa
HPBL,
m
16 april, fri
fri1600:00−21e0010098 0.1 10119
03:00−23ne1110098 0.1 101312
06:00−18nne119895 0.1 101352
09:00−9wnw0191100 0.2 1012255
12:00−5wsw129197 0.2 1010533
15:00−3w578294 0.9 10101125
18:00−5sw019245 0.1 101210
21:00−15ese119974 0.1 101610
17 april, sat
sat1700:00−16ese119997 0.1 101610
03:00−19se11100100 0.1 101610
06:00−10sse239899 0.1 1012104
09:00−5sse2586100 0.1 1009361
12:00−2sse3975100 0.0 10061005
15:00−1s3878100 0.1 10051252
18:00−2se2498100 1.4 1006304
21:00−3se1298100 3.3 100657
18 april, sun
sun1800:00−4se2398100 1.3 100692
03:00−8se1198100 1.5 100812
06:00−6sse2395100 0.1 100884
09:00−3sse2393100 0.7 1009455
12:00−1ssw1299100 1.1 1010422
15:00−1w358489 1.9 1012899
18:00−3wsw3790100 0.2 1016582
21:00−11nnw2198100 0.4 102213
19 april, mon
mon1900:00−12nne1197100 0.0 102311
03:00−13nne1197100 0.0 102411
06:00−9nne1191100 0.0 102265
09:00−5ne1280100 0.0 1020374
12:00−3e1591100 0.3 1017626
15:00−1se51088100 0.9 10151169
18:00−2se5118898 0.3 10151009
21:00−4ese31089100 0.4 1016561
20 april, tue
tue2000:00−7ne1197100 0.2 101525
03:00−7nne2497100 1.9 1013107
06:00−6n2497100 3.2 1012175
09:00−4nnw2396100 6.9 1010315
12:00−2nw1295100 3.0 1009368
15:00−3w2295100 2.7 1010406
18:00−5w2297100 1.1 1011287
21:00−8wsw1198100 1.4 101311